Location: Ferchesar
(52.6477°N, 12.4298°E)
Time: 16:48:44
(UTC+01:00)

Explorer 7 - Pass Details

Date: 08 December 2021
Orbit: 483 x 674 km, 50.3° (Epoch: 23 January)

Event Time Altitude Azimuth Distance (km) Brightness Sun altitude
Rises 08:10:56 0° 274° (W) 2,762 9.9 -0.5°
Reaches altitude 10° 08:13:17 10° 270° (W) 1,831 9.0 -0.3°
Maximum altitude 08:17:19 53° 194° (SSW) 657 7.5 0.2°
Drops below altitude 10° 08:21:08 10° 117° (ESE) 1,728 11.2 0.7°
Sets 08:23:18 0° 112° (ESE) 2,589 12.0 0.9°
